owner,sensor,date,latitude,longitude,vertical_datum,wind_speed,wind_to_direction,wind_speed_of_gust,qcFlag 
COMPS,ioos:station:USF.COMPS:BGC:1,2014-02-01T00:00:00Z,26.4040,-81.8810,10.0,1.25,9.17,1.96,'1111122,1111122,1111122' 
COMPS,ioos:station:USF.COMPS:BGC:1,2014-02-01T00:06:00Z,26.4040,-81.8810,10.0,1.38,11.31,1.66,'1111122,1111122,1111122' 
COMPS,ioos:station:USF.COMPS:BGC:1,2014-02-01T00:12:00Z,26.4040,-81.8810,10.0,1.21,355.72,1.56,'1111122,1111122,1111122' 
COMPS,ioos:station:USF.COMPS:BGC:1,2014-02-01T00:18:00Z,26.4040,-81.8810,10.0,1.27,0.6,1.66,'1111122,1111122,1111122' 
COMPS,ioos:station:USF.COMPS:BGC:1,2014-02-01T00:24:00Z,26.4040,-81.8810,10.0,1.86,11.6,2.05,'1111122,1111122,1111122' 
COMPS,ioos:station:USF.COMPS:BGC:1,2014-02-01T00:30:00Z,26.4040,-81.8810,10.0,1.5,24.76,1.76,'1111122,1111122,1111122' 
COMPS,ioos:station:USF.COMPS:BGC:1,2014-02-01T00:36:00Z,26.4040,-81.8810,10.0,1.68,32.57,1.86,'1111122,1111122,1111122' 
COMPS,ioos:station:USF.COMPS:BGC:1,2014-02-01T00:42:00Z,26.4040,-81.8810,10.0,1.48,28.54,1.66,'1111122,1111122,1111122' 
COMPS,ioos:station:USF.COMPS:BGC:1,2014-02-01T00:48:00Z,26.4040,-81.8810,10.0,1.21,32.39,1.47,'1111122,1111122,1111122' 
COMPS,ioos:station:USF.COMPS:BGC:1,2014-02-01T00:54:00Z,26.4040,-81.8810,10.0,1.06,56.02,1.56,'1111122,1111122,1111122' 
COMPS,ioos:station:USF.COMPS:BGC:1,2014-02-01T01:00:00Z,26.4040,-81.8810,10.0,0.98,54.07,1.76,'1111122,1111122,1111122' 
COMPS,ioos:station:USF.COMPS:BGC:1,2014-02-01T01:06:00Z,26.4040,-81.8810,10.0,2.08,26.79,2.35,'1111122,1111122,1111122' 
COMPS,ioos:station:USF.COMPS:BGC:1,2014-02-01T01:12:00Z,26.4040,-81.8810,10.0,1.73,28.74,1.96,'1111122,1111122,1111122' 
COMPS,ioos:station:USF.COMPS:BGC:1,2014-02-01T01:18:00Z,26.4040,-81.8810,10.0,1.07,28.99,1.66,'1111122,1111122,1111122' 
COMPS,ioos:station:USF.COMPS:BGC:1,2014-02-01T01:24:00Z,26.4040,-81.8810,10.0,1.32,46.64,1.96,'1111122,1111122,1111122' 
COMPS,ioos:station:USF.COMPS:BGC:1,2014-02-01T01:30:00Z,26.4040,-81.8810,10.0,1.55,45.45,1.96,'1111122,1111122,1111122' 
COMPS,ioos:station:USF.COMPS:BGC:1,2014-02-01T01:36:00Z,26.4040,-81.8810,10.0,1.23,14.57,1.47,'1111122,1111122,1111122' 
COMPS,ioos:station:USF.COMPS:BGC:1,2014-02-01T01:42:00Z,26.4040,-81.8810,10.0,1.83,15.14,2.25,'1111122,1111122,1111122' 
COMPS,ioos:station:USF.COMPS:BGC:1,2014-02-01T01:48:00Z,26.4040,-81.8810,10.0,2.07,22.24,2.25,'1111122,1111122,1111122' 
COMPS,ioos:station:USF.COMPS:BGC:1,2014-02-01T01:54:00Z,26.4040,-81.8810,10.0,1.24,11.94,1.76,'1111122,1111122,1111122' 
COMPS,ioos:station:USF.COMPS:BGC:1,2014-02-01T02:00:00Z,26.4040,-81.8810,10.0,0.82,25.66,1.17,'1111122,1111122,1111122' 
COMPS,ioos:station:USF.COMPS:BGC:1,2014-02-01T02:06:00Z,26.4040,-81.8810,10.0,0.79,16.98,0.98,'1111122,1111122,1111122' 
COMPS,ioos:station:USF.COMPS:BGC:1,2014-02-01T02:12:00Z,26.4040,-81.8810,10.0,0.64,13.75,0.78,'1111122,1111122,1111122' 
COMPS,ioos:station:USF.COMPS:BGC:1,2014-02-01T02:18:00Z,26.4040,-81.8810,10.0,0.11,10.52,0.49,'1111122,1111122,1111122' 
COMPS,ioos:station:USF.COMPS:BGC:1,2014-02-01T02:24:00Z,26.4040,-81.8810,10.0,0.25,34.49,0.58,'1111122,1111122,1111122' 
COMPS,ioos:station:USF.COMPS:BGC:1,2014-02-01T02:30:00Z,26.4040,-81.8810,10.0,0.51,56.82,0.88,'1111122,1111122,1111122' 
COMPS,ioos:station:USF.COMPS:BGC:1,2014-02-01T02:36:00Z,26.4040,-81.8810,10.0,0.31,72.31,0.98,'1111122,1111122,1111122' 
COMPS,ioos:station:USF.COMPS:BGC:1,2014-02-01T02:42:00Z,26.4040,-81.8810,10.0,0.26,69.21,0.78,'1111122,1111122,1111122' 
COMPS,ioos:station:USF.COMPS:BGC:1,2014-02-01T02:48:00Z,26.4040,-81.8810,10.0,0.16,67.74,0.68,'1111122,1111122,1111122' 
COMPS,ioos:station:USF.COMPS:BGC:1,2014-02-01T02:54:00Z,26.4040,-81.8810,10.0,0.21,54.54,0.58,'1111122,1111122,1111122' 
COMPS,ioos:station:USF.COMPS:BGC:1,2014-02-01T03:00:00Z,26.4040,-81.8810,10.0,0.43,10.1,0.78,'1111122,1111122,1111122' 
COMPS,ioos:station:USF.COMPS:BGC:1,2014-02-01T03:06:00Z,26.4040,-81.8810,10.0,0.48,11.74,0.78,'1111122,1111122,1111122' 
COMPS,ioos:station:USF.COMPS:BGC:1,2014-02-01T03:12:00Z,26.4040,-81.8810,10.0,0.74,32.17,1.17,'1111122,1111122,1111122' 
COMPS,ioos:station:USF.COMPS:BGC:1,2014-02-01T03:18:00Z,26.4040,-81.8810,10.0,0.68,46.89,0.98,'1111122,1111122,1111122' 
COMPS,ioos:station:USF.COMPS:BGC:1,2014-02-01T03:24:00Z,26.4040,-81.8810,10.0,0.63,66.24,0.78,'1111122,1111122,1111122' 
COMPS,ioos:station:USF.COMPS:BGC:1,2014-02-01T03:30:00Z,26.4040,-81.8810,10.0,0.69,50.39,0.98,'1111122,1111122,1111122' 
COMPS,ioos:station:USF.COMPS:BGC:1,2014-02-01T03:36:00Z,26.4040,-81.8810,10.0,1.13,85.08,1.56,'1111122,1111122,1111122' 
COMPS,ioos:station:USF.COMPS:BGC:1,2014-02-01T03:42:00Z,26.4040,-81.8810,10.0,1.04,67.47,1.66,'1111122,1111122,1111122' 
COMPS,ioos:station:USF.COMPS:BGC:1,2014-02-01T03:48:00Z,26.4040,-81.8810,10.0,0.65,74.6,1.07,'1111122,1111122,1111122' 
COMPS,ioos:station:USF.COMPS:BGC:1,2014-02-01T03:54:00Z,26.4040,-81.8810,10.0,0.29,76.03,0.58,'1111122,1111122,1111122' 
COMPS,ioos:station:USF.COMPS:BGC:1,2014-02-01T04:00:00Z,26.4040,-81.8810,10.0,0.68,93.26,0.98,'1111122,1111122,1111122' 
COMPS,ioos:station:USF.COMPS:BGC:1,2014-02-01T04:06:00Z,26.4040,-81.8810,10.0,0.65,177.31,0.98,'1111122,1111122,1111122' 
COMPS,ioos:station:USF.COMPS:BGC:1,2014-02-01T04:12:00Z,26.4040,-81.8810,10.0,0.76,244.33,1.27,'1111122,1111122,1111122' 
COMPS,ioos:station:USF.COMPS:BGC:1,2014-02-01T04:18:00Z,26.4040,-81.8810,10.0,1.36,243.42,2.35,'1111122,1111122,1111122' 
COMPS,ioos:station:USF.COMPS:BGC:1,2014-02-01T04:24:00Z,26.4040,-81.8810,10.0,1.04,247.82,1.47,'1111122,1111122,1111122' 
COMPS,ioos:station:USF.COMPS:BGC:1,2014-02-01T04:30:00Z,26.4040,-81.8810,10.0,0.17,291.57,0.49,'1111122,1111122,1111122' 
COMPS,ioos:station:USF.COMPS:BGC:1,2014-02-01T04:36:00Z,26.4040,-81.8810,10.0,0.59,304.11,0.78,'1111122,1111122,1111122' 
COMPS,ioos:station:USF.COMPS:BGC:1,2014-02-01T04:42:00Z,26.4040,-81.8810,10.0,0.41,253.13,0.58,'1111122,1111122,1111122' 
COMPS,ioos:station:USF.COMPS:BGC:1,2014-02-01T04:48:00Z,26.4040,-81.8810,10.0,0.06,247.11,0.39,'1111122,1111122,1111122' 
COMPS,ioos:station:USF.COMPS:BGC:1,2014-02-01T04:54:00Z,26.4040,-81.8810,10.0,0.03,355.34,0.29,'1111122,1111122,1111122' 
COMPS,ioos:station:USF.COMPS:BGC:1,2014-02-01T05:00:00Z,26.4040,-81.8810,10.0,0.57,11.7,0.88,'1111122,1111122,1111122' 
COMPS,ioos:station:USF.COMPS:BGC:1,2014-02-01T05:06:00Z,26.4040,-81.8810,10.0,0.77,21.73,1.07,'1111122,1111122,1111122' 
COMPS,ioos:station:USF.COMPS:BGC:1,2014-02-01T05:12:00Z,26.4040,-81.8810,10.0,0.59,41.57,0.78,'1111122,1111122,1111122' 
COMPS,ioos:station:USF.COMPS:BGC:1,2014-02-01T05:18:00Z,26.4040,-81.8810,10.0,0.97,98.53,1.47,'1111122,1111122,1111122' 
COMPS,ioos:station:USF.COMPS:BGC:1,2014-02-01T05:24:00Z,26.4040,-81.8810,10.0,1.46,97.54,1.66,'1111122,1111122,1111122' 
COMPS,ioos:station:USF.COMPS:BGC:1,2014-02-01T05:30:00Z,26.4040,-81.8810,10.0,1.92,76.49,2.25,'1111122,1111122,1111122' 
COMPS,ioos:station:USF.COMPS:BGC:1,2014-02-01T05:36:00Z,26.4040,-81.8810,10.0,1.37,90.08,2.15,'1111122,1111122,1111122' 
COMPS,ioos:station:USF.COMPS:BGC:1,2014-02-01T05:42:00Z,26.4040,-81.8810,10.0,1.53,110.88,1.96,'1111122,1111122,1111122' 
COMPS,ioos:station:USF.COMPS:BGC:1,2014-02-01T05:48:00Z,26.4040,-81.8810,10.0,1.99,108.03,2.25,'1111122,1111122,1111122' 
COMPS,ioos:station:USF.COMPS:BGC:1,2014-02-01T05:54:00Z,26.4040,-81.8810,10.0,1.7,106.74,1.76,'1111122,1111122,1111122' 
COMPS,ioos:station:USF.COMPS:BGC:1,2014-02-01T06:00:00Z,26.4040,-81.8810,10.0,1.97,120.27,2.74,'1111122,1111122,1111122' 
COMPS,ioos:station:USF.COMPS:BGC:1,2014-02-01T06:06:00Z,26.4040,-81.8810,10.0,2.62,134.12,2.84,'1111122,1111122,1111122' 
COMPS,ioos:station:USF.COMPS:BGC:1,2014-02-01T06:12:00Z,26.4040,-81.8810,10.0,2.63,136.08,3.03,'1111122,1111122,1111122' 
COMPS,ioos:station:USF.COMPS:BGC:1,2014-02-01T06:18:00Z,26.4040,-81.8810,10.0,2.69,133.85,3.23,'1111122,1111122,1111122' 
COMPS,ioos:station:USF.COMPS:BGC:1,2014-02-01T06:24:00Z,26.4040,-81.8810,10.0,2.52,141.91,3.23,'1111122,1111122,1111122' 
COMPS,ioos:station:USF.COMPS:BGC:1,2014-02-01T06:30:00Z,26.4040,-81.8810,10.0,1.85,147.84,2.45,'1111122,1111122,1111122' 
COMPS,ioos:station:USF.COMPS:BGC:1,2014-02-01T06:36:00Z,26.4040,-81.8810,10.0,1.43,153.67,1.86,'1111122,1111122,1111122' 
COMPS,ioos:station:USF.COMPS:BGC:1,2014-02-01T06:42:00Z,26.4040,-81.8810,10.0,1.64,153.5,2.15,'1111122,1111122,1111122' 
COMPS,ioos:station:USF.COMPS:BGC:1,2014-02-01T06:48:00Z,26.4040,-81.8810,10.0,1.96,155.96,2.45,'1111122,1111122,1111122' 
COMPS,ioos:station:USF.COMPS:BGC:1,2014-02-01T06:54:00Z,26.4040,-81.8810,10.0,2.26,181.69,2.74,'1111122,1111122,1111122' 
COMPS,ioos:station:USF.COMPS:BGC:1,2014-02-01T07:00:00Z,26.4040,-81.8810,10.0,2.55,166.03,3.43,'1111122,1111122,1111122' 
COMPS,ioos:station:USF.COMPS:BGC:1,2014-02-01T07:06:00Z,26.4040,-81.8810,10.0,2.74,150.0,3.43,'1111122,1111122,1111122' 
COMPS,ioos:station:USF.COMPS:BGC:1,2014-02-01T07:12:00Z,26.4040,-81.8810,10.0,2.49,158.05,3.23,'1111122,1111122,1111122' 
COMPS,ioos:station:USF.COMPS:BGC:1,2014-02-01T07:18:00Z,26.4040,-81.8810,10.0,2.16,150.77,2.74,'1111122,1111122,1111122' 
COMPS,ioos:station:USF.COMPS:BGC:1,2014-02-01T07:24:00Z,26.4040,-81.8810,10.0,1.93,151.13,2.35,'1111122,1111122,1111122' 
COMPS,ioos:station:USF.COMPS:BGC:1,2014-02-01T07:30:00Z,26.4040,-81.8810,10.0,1.97,161.7,2.35,'1111122,1111122,1111122' 
COMPS,ioos:station:USF.COMPS:BGC:1,2014-02-01T07:36:00Z,26.4040,-81.8810,10.0,1.89,157.84,2.25,'1111122,1111122,1111122' 
COMPS,ioos:station:USF.COMPS:BGC:1,2014-02-01T07:42:00Z,26.4040,-81.8810,10.0,2.06,166.12,2.45,'1111122,1111122,1111122' 
COMPS,ioos:station:USF.COMPS:BGC:1,2014-02-01T07:48:00Z,26.4040,-81.8810,10.0,2.57,159.9,3.13,'1111122,1111122,1111122' 
COMPS,ioos:station:USF.COMPS:BGC:1,2014-02-01T07:54:00Z,26.4040,-81.8810,10.0,2.49,153.42,2.94,'1111122,1111122,1111122' 
COMPS,ioos:station:USF.COMPS:BGC:1,2014-02-01T08:00:00Z,26.4040,-81.8810,10.0,2.69,147.69,3.43,'1111122,1111122,1111122' 
COMPS,ioos:station:USF.COMPS:BGC:1,2014-02-01T08:06:00Z,26.4040,-81.8810,10.0,2.98,148.21,3.43,'1111122,1111122,1111122' 
COMPS,ioos:station:USF.COMPS:BGC:1,2014-02-01T08:12:00Z,26.4040,-81.8810,10.0,2.87,157.26,3.72,'1111122,1111122,1111122' 
COMPS,ioos:station:USF.COMPS:BGC:1,2014-02-01T08:18:00Z,26.4040,-81.8810,10.0,2.99,151.56,3.92,'1111122,1111122,1111122' 
COMPS,ioos:station:USF.COMPS:BGC:1,2014-02-01T08:24:00Z,26.4040,-81.8810,10.0,2.94,147.44,3.52,'1111122,1111122,1111122' 
COMPS,ioos:station:USF.COMPS:BGC:1,2014-02-01T08:30:00Z,26.4040,-81.8810,10.0,2.9,150.66,3.62,'1111122,1111122,1111122' 
COMPS,ioos:station:USF.COMPS:BGC:1,2014-02-01T08:36:00Z,26.4040,-81.8810,10.0,2.7,147.75,3.52,'1111122,1111122,1111122' 
COMPS,ioos:station:USF.COMPS:BGC:1,2014-02-01T08:42:00Z,26.4040,-81.8810,10.0,2.05,135.34,2.84,'1111122,1111122,1111122' 
COMPS,ioos:station:USF.COMPS:BGC:1,2014-02-01T08:48:00Z,26.4040,-81.8810,10.0,1.56,122.31,2.35,'1111122,1111122,1111122' 
COMPS,ioos:station:USF.COMPS:BGC:1,2014-02-01T08:54:00Z,26.4040,-81.8810,10.0,1.82,120.46,2.25,'1111122,1111122,1111122' 
COMPS,ioos:station:USF.COMPS:BGC:1,2014-02-01T09:00:00Z,26.4040,-81.8810,10.0,1.51,122.67,2.15,'1111122,1111122,1111122' 
COMPS,ioos:station:USF.COMPS:BGC:1,2014-02-01T09:06:00Z,26.4040,-81.8810,10.0,1.72,119.99,2.15,'1111122,1111122,1111122' 
COMPS,ioos:station:USF.COMPS:BGC:1,2014-02-01T09:12:00Z,26.4040,-81.8810,10.0,1.72,118.59,2.15,'1111122,1111122,1111122' 
COMPS,ioos:station:USF.COMPS:BGC:1,2014-02-01T09:18:00Z,26.4040,-81.8810,10.0,2.13,112.45,2.84,'1111122,1111122,1111122' 
COMPS,ioos:station:USF.COMPS:BGC:1,2014-02-01T09:24:00Z,26.4040,-81.8810,10.0,2.68,109.83,3.03,'1111122,1111122,1111122' 
COMPS,ioos:station:USF.COMPS:BGC:1,2014-02-01T09:30:00Z,26.4040,-81.8810,10.0,2.42,108.71,2.64,'1111122,1111122,1111122' 
COMPS,ioos:station:USF.COMPS:BGC:1,2014-02-01T09:36:00Z,26.4040,-81.8810,10.0,2.23,107.01,2.74,'1111122,1111122,1111122' 
COMPS,ioos:station:USF.COMPS:BGC:1,2014-02-01T09:42:00Z,26.4040,-81.8810,10.0,1.96,108.71,2.35,'1111122,1111122,1111122' 
COMPS,ioos:station:USF.COMPS:BGC:1,2014-02-01T09:48:00Z,26.4040,-81.8810,10.0,2.15,98.36,2.45,'1111122,1111122,1111122' 
COMPS,ioos:station:USF.COMPS:BGC:1,2014-02-01T09:54:00Z,26.4040,-81.8810,10.0,2.17,77.24,2.84,'1111122,1111122,1111122' 
COMPS,ioos:station:USF.COMPS:BGC:1,2014-02-01T10:00:00Z,26.4040,-81.8810,10.0,2.24,85.04,2.84,'1111122,1111122,1111122' 
COMPS,ioos:station:USF.COMPS:BGC:1,2014-02-01T10:06:00Z,26.4040,-81.8810,10.0,1.81,87.22,2.25,'1111122,1111122,1111122' 
COMPS,ioos:station:USF.COMPS:BGC:1,2014-02-01T10:12:00Z,26.4040,-81.8810,10.0,1.98,82.52,2.45,'1111122,1111122,1111122' 
COMPS,ioos:station:USF.COMPS:BGC:1,2014-02-01T10:18:00Z,26.4040,-81.8810,10.0,2.25,79.59,2.94,'1111122,1111122,1111122' 
COMPS,ioos:station:USF.COMPS:BGC:1,2014-02-01T10:24:00Z,26.4040,-81.8810,10.0,2.87,78.6,3.33,'1111122,1111122,1111122' 
COMPS,ioos:station:USF.COMPS:BGC:1,2014-02-01T10:30:00Z,26.4040,-81.8810,10.0,2.97,82.24,3.43,'1111122,1111122,1111122' 
COMPS,ioos:station:USF.COMPS:BGC:1,2014-02-01T10:36:00Z,26.4040,-81.8810,10.0,2.86,85.86,3.72,'1111122,1111122,1111122' 
COMPS,ioos:station:USF.COMPS:BGC:1,2014-02-01T10:42:00Z,26.4040,-81.8810,10.0,2.65,80.63,3.43,'1111122,1111122,1111122' 
COMPS,ioos:station:USF.COMPS:BGC:1,2014-02-01T10:48:00Z,26.4040,-81.8810,10.0,2.55,80.49,3.13,'1111122,1111122,1111122' 
COMPS,ioos:station:USF.COMPS:BGC:1,2014-02-01T10:54:00Z,26.4040,-81.8810,10.0,2.85,83.12,3.43,'1111122,1111122,1111122' 
COMPS,ioos:station:USF.COMPS:BGC:1,2014-02-01T11:00:00Z,26.4040,-81.8810,10.0,2.96,87.92,3.62,'1111122,1111122,1111122' 
COMPS,ioos:station:USF.COMPS:BGC:1,2014-02-01T11:06:00Z,26.4040,-81.8810,10.0,2.93,86.68,3.52,'1111122,1111122,1111122' 
COMPS,ioos:station:USF.COMPS:BGC:1,2014-02-01T11:12:00Z,26.4040,-81.8810,10.0,2.84,82.69,3.52,'1111122,1111122,1111122' 
COMPS,ioos:station:USF.COMPS:BGC:1,2014-02-01T11:18:00Z,26.4040,-81.8810,10.0,2.8,88.98,3.52,'1111122,1111122,1111122' 
COMPS,ioos:station:USF.COMPS:BGC:1,2014-02-01T11:24:00Z,26.4040,-81.8810,10.0,2.38,92.68,3.23,'1111122,1111122,1111122' 
COMPS,ioos:station:USF.COMPS:BGC:1,2014-02-01T11:30:00Z,26.4040,-81.8810,10.0,2.47,90.2,3.13,'1111122,1111122,1111122' 
COMPS,ioos:station:USF.COMPS:BGC:1,2014-02-01T11:36:00Z,26.4040,-81.8810,10.0,2.29,91.99,2.74,'1111122,1111122,1111122' 
COMPS,ioos:station:USF.COMPS:BGC:1,2014-02-01T11:42:00Z,26.4040,-81.8810,10.0,2.35,94.26,2.94,'1111122,1111122,1111122' 
COMPS,ioos:station:USF.COMPS:BGC:1,2014-02-01T11:48:00Z,26.4040,-81.8810,10.0,2.47,88.63,3.43,'1111122,1111122,1111122' 
COMPS,ioos:station:USF.COMPS:BGC:1,2014-02-01T11:54:00Z,26.4040,-81.8810,10.0,2.38,92.99,3.03,'1111122,1111122,1111122' 
COMPS,ioos:station:USF.COMPS:BGC:1,2014-02-01T12:00:00Z,26.4040,-81.8810,10.0,2.21,88.46,3.03,'1111122,1111122,1111122' 
COMPS,ioos:station:USF.COMPS:BGC:1,2014-02-01T12:06:00Z,26.4040,-81.8810,10.0,2.07,77.12,3.13,'1111122,1111122,1111122' 
COMPS,ioos:station:USF.COMPS:BGC:1,2014-02-01T12:12:00Z,26.4040,-81.8810,10.0,1.9,42.37,2.54,'1111122,1111122,1111122' 
COMPS,ioos:station:USF.COMPS:BGC:1,2014-02-01T12:18:00Z,26.4040,-81.8810,10.0,2.81,345.22,3.52,'1111122,1111122,1111122' 
COMPS,ioos:station:USF.COMPS:BGC:1,2014-02-01T12:24:00Z,26.4040,-81.8810,10.0,2.69,316.77,3.62,'1111122,1111122,1111122' 
COMPS,ioos:station:USF.COMPS:BGC:1,2014-02-01T12:30:00Z,26.4040,-81.8810,10.0,2.18,336.67,3.33,'1111122,1111122,1111122' 
COMPS,ioos:station:USF.COMPS:BGC:1,2014-02-01T12:36:00Z,26.4040,-81.8810,10.0,2.61,41.96,3.82,'1111122,1111122,1111122' 
COMPS,ioos:station:USF.COMPS:BGC:1,2014-02-01T12:42:00Z,26.4040,-81.8810,10.0,2.47,29.88,3.23,'1111122,1111122,1111122' 
COMPS,ioos:station:USF.COMPS:BGC:1,2014-02-01T12:48:00Z,26.4040,-81.8810,10.0,2.64,328.76,3.23,'1111122,1111122,1111122' 
COMPS,ioos:station:USF.COMPS:BGC:1,2014-02-01T12:54:00Z,26.4040,-81.8810,10.0,2.65,340.19,3.43,'1111122,1111122,1111122' 
COMPS,ioos:station:USF.COMPS:BGC:1,2014-02-01T13:00:00Z,26.4040,-81.8810,10.0,3.36,0.4,4.21,'1111122,1111122,1111122' 
COMPS,ioos:station:USF.COMPS:BGC:1,2014-02-01T13:06:00Z,26.4040,-81.8810,10.0,2.51,16.24,2.94,'1111122,1111122,1111122' 
COMPS,ioos:station:USF.COMPS:BGC:1,2014-02-01T13:12:00Z,26.4040,-81.8810,10.0,2.18,28.34,2.74,'1111122,1111122,1111122' 
COMPS,ioos:station:USF.COMPS:BGC:1,2014-02-01T13:18:00Z,26.4040,-81.8810,10.0,2.09,18.12,2.74,'1111122,1111122,1111122' 
COMPS,ioos:station:USF.COMPS:BGC:1,2014-02-01T13:24:00Z,26.4040,-81.8810,10.0,2.56,347.29,3.03,'1111122,1111122,1111122' 
COMPS,ioos:station:USF.COMPS:BGC:1,2014-02-01T13:30:00Z,26.4040,-81.8810,10.0,2.42,337.81,2.94,'1111122,1111122,1111122' 
COMPS,ioos:station:USF.COMPS:BGC:1,2014-02-01T13:36:00Z,26.4040,-81.8810,10.0,2.21,351.07,2.84,'1111122,1111122,1111122' 
COMPS,ioos:station:USF.COMPS:BGC:1,2014-02-01T13:42:00Z,26.4040,-81.8810,10.0,2.21,10.93,2.54,'1111122,1111122,1111122' 
COMPS,ioos:station:USF.COMPS:BGC:1,2014-02-01T13:48:00Z,26.4040,-81.8810,10.0,2.33,25.36,2.64,'1111122,1111122,1111122' 
COMPS,ioos:station:USF.COMPS:BGC:1,2014-02-01T13:54:00Z,26.4040,-81.8810,10.0,2.27,22.69,2.74,'1111122,1111122,1111122' 
COMPS,ioos:station:USF.COMPS:BGC:1,2014-02-01T14:00:00Z,26.4040,-81.8810,10.0,2.26,32.97,2.54,'1111122,1111122,1111122' 
COMPS,ioos:station:USF.COMPS:BGC:1,2014-02-01T14:06:00Z,26.4040,-81.8810,10.0,2.45,45.48,2.94,'1111122,1111122,1111122' 
COMPS,ioos:station:USF.COMPS:BGC:1,2014-02-01T14:12:00Z,26.4040,-81.8810,10.0,2.53,45.26,2.94,'1111122,1111122,1111122' 
COMPS,ioos:station:USF.COMPS:BGC:1,2014-02-01T14:18:00Z,26.4040,-81.8810,10.0,2.5,46.62,2.94,'1111122,1111122,1111122' 
COMPS,ioos:station:USF.COMPS:BGC:1,2014-02-01T14:24:00Z,26.4040,-81.8810,10.0,1.73,53.89,2.74,'1111122,1111122,1111122' 
COMPS,ioos:station:USF.COMPS:BGC:1,2014-02-01T14:30:00Z,26.4040,-81.8810,10.0,1.61,55.35,2.35,'1111122,1111122,1111122' 
COMPS,ioos:station:USF.COMPS:BGC:1,2014-02-01T14:36:00Z,26.4040,-81.8810,10.0,1.14,60.98,2.15,'1111122,1111122,1111122' 
COMPS,ioos:station:USF.COMPS:BGC:1,2014-02-01T14:42:00Z,26.4040,-81.8810,10.0,1.54,49.21,2.25,'1111122,1111122,1111122' 
COMPS,ioos:station:USF.COMPS:BGC:1,2014-02-01T14:48:00Z,26.4040,-81.8810,10.0,1.93,44.98,2.45,'1111122,1111122,1111122' 
COMPS,ioos:station:USF.COMPS:BGC:1,2014-02-01T14:54:00Z,26.4040,-81.8810,10.0,1.6,42.44,1.86,'1111122,1111122,1111122' 
COMPS,ioos:station:USF.COMPS:BGC:1,2014-02-01T15:00:00Z,26.4040,-81.8810,10.0,1.13,60.63,1.96,'1111122,1111122,1111122' 
COMPS,ioos:station:USF.COMPS:BGC:1,2014-02-01T15:06:00Z,26.4040,-81.8810,10.0,0.94,70.65,1.66,'1111122,1111122,1111122' 
COMPS,ioos:station:USF.COMPS:BGC:1,2014-02-01T15:12:00Z,26.4040,-81.8810,10.0,1.1,103.17,1.66,'1111122,1111122,1111122' 
COMPS,ioos:station:USF.COMPS:BGC:1,2014-02-01T15:18:00Z,26.4040,-81.8810,10.0,1.61,112.32,2.35,'1111122,1111122,1111122' 
COMPS,ioos:station:USF.COMPS:BGC:1,2014-02-01T15:24:00Z,26.4040,-81.8810,10.0,2.51,107.85,3.62,'1111122,1111122,1111122' 
COMPS,ioos:station:USF.COMPS:BGC:1,2014-02-01T15:30:00Z,26.4040,-81.8810,10.0,2.63,117.8,3.62,'1111122,1111122,1111122' 
COMPS,ioos:station:USF.COMPS:BGC:1,2014-02-01T15:36:00Z,26.4040,-81.8810,10.0,3.13,114.45,4.21,'1111122,1111122,1111122' 
COMPS,ioos:station:USF.COMPS:BGC:1,2014-02-01T15:42:00Z,26.4040,-81.8810,10.0,3.34,120.57,4.5,'1111122,1111122,1111122' 
COMPS,ioos:station:USF.COMPS:BGC:1,2014-02-01T15:48:00Z,26.4040,-81.8810,10.0,3.09,122.95,4.21,'1111122,1111122,1111122' 
COMPS,ioos:station:USF.COMPS:BGC:1,2014-02-01T15:54:00Z,26.4040,-81.8810,10.0,2.34,126.82,3.33,'1111122,1111122,1111122' 
COMPS,ioos:station:USF.COMPS:BGC:1,2014-02-01T16:00:00Z,26.4040,-81.8810,10.0,2.46,129.54,3.43,'1111122,1111122,1111122' 
COMPS,ioos:station:USF.COMPS:BGC:1,2014-02-01T16:06:00Z,26.4040,-81.8810,10.0,1.49,128.92,2.15,'1111122,1111122,1111122' 
COMPS,ioos:station:USF.COMPS:BGC:1,2014-02-01T16:12:00Z,26.4040,-81.8810,10.0,1.95,136.73,2.84,'1111122,1111122,1111122' 
COMPS,ioos:station:USF.COMPS:BGC:1,2014-02-01T16:18:00Z,26.4040,-81.8810,10.0,1.77,138.45,2.25,'1111122,1111122,1111122' 
COMPS,ioos:station:USF.COMPS:BGC:1,2014-02-01T16:24:00Z,26.4040,-81.8810,10.0,1.55,172.82,2.35,'1111122,1111122,1111122' 
COMPS,ioos:station:USF.COMPS:BGC:1,2014-02-01T16:30:00Z,26.4040,-81.8810,10.0,1.92,227.14,3.03,'1111122,1111122,1111122' 
COMPS,ioos:station:USF.COMPS:BGC:1,2014-02-01T16:36:00Z,26.4040,-81.8810,10.0,1.89,233.89,2.54,'1111122,1111122,1111122' 
COMPS,ioos:station:USF.COMPS:BGC:1,2014-02-01T16:42:00Z,26.4040,-81.8810,10.0,1.69,227.65,1.96,'1111122,1111122,1111122' 
COMPS,ioos:station:USF.COMPS:BGC:1,2014-02-01T16:48:00Z,26.4040,-81.8810,10.0,1.99,226.14,2.25,'1111122,1111122,1111122' 
COMPS,ioos:station:USF.COMPS:BGC:1,2014-02-01T16:54:00Z,26.4040,-81.8810,10.0,2.16,218.22,2.64,'1111122,1111122,1111122' 
COMPS,ioos:station:USF.COMPS:BGC:1,2014-02-01T17:00:00Z,26.4040,-81.8810,10.0,1.83,210.66,2.64,'1111122,1111122,1111122' 
COMPS,ioos:station:USF.COMPS:BGC:1,2014-02-01T17:06:00Z,26.4040,-81.8810,10.0,1.34,205.33,1.76,'1111122,1111122,1111122' 
COMPS,ioos:station:USF.COMPS:BGC:1,2014-02-01T17:12:00Z,26.4040,-81.8810,10.0,2.07,223.35,2.64,'1111122,1111122,1111122' 
COMPS,ioos:station:USF.COMPS:BGC:1,2014-02-01T17:18:00Z,26.4040,-81.8810,10.0,1.77,222.49,2.15,'1111122,1111122,1111122' 
COMPS,ioos:station:USF.COMPS:BGC:1,2014-02-01T17:24:00Z,26.4040,-81.8810,10.0,1.66,218.61,1.96,'1111122,1111122,1111122' 
COMPS,ioos:station:USF.COMPS:BGC:1,2014-02-01T17:30:00Z,26.4040,-81.8810,10.0,1.88,226.13,2.25,'1111122,1111122,1111122' 
COMPS,ioos:station:USF.COMPS:BGC:1,2014-02-01T17:36:00Z,26.4040,-81.8810,10.0,2.15,238.58,2.94,'1111122,1111122,1111122' 
COMPS,ioos:station:USF.COMPS:BGC:1,2014-02-01T17:42:00Z,26.4040,-81.8810,10.0,3.11,244.21,3.72,'1111122,1111122,1111122' 
COMPS,ioos:station:USF.COMPS:BGC:1,2014-02-01T17:48:00Z,26.4040,-81.8810,10.0,3.07,238.54,3.62,'1111122,1111122,1111122' 
COMPS,ioos:station:USF.COMPS:BGC:1,2014-02-01T17:54:00Z,26.4040,-81.8810,10.0,2.99,239.39,3.43,'1111122,1111122,1111122' 
COMPS,ioos:station:USF.COMPS:BGC:1,2014-02-01T18:00:00Z,26.4040,-81.8810,10.0,3.14,240.57,3.52,'1111122,1111122,1111122' 
COMPS,ioos:station:USF.COMPS:BGC:1,2014-02-01T18:06:00Z,26.4040,-81.8810,10.0,3.2,246.07,3.72,'1111122,1111122,1111122' 
COMPS,ioos:station:USF.COMPS:BGC:1,2014-02-01T18:12:00Z,26.4040,-81.8810,10.0,2.84,243.3,3.33,'1111122,1111122,1111122' 
COMPS,ioos:station:USF.COMPS:BGC:1,2014-02-01T18:18:00Z,26.4040,-81.8810,10.0,2.94,239.46,3.43,'1111122,1111122,1111122' 
COMPS,ioos:station:USF.COMPS:BGC:1,2014-02-01T18:24:00Z,26.4040,-81.8810,10.0,3.08,234.48,3.62,'1111122,1111122,1111122' 
COMPS,ioos:station:USF.COMPS:BGC:1,2014-02-01T18:30:00Z,26.4040,-81.8810,10.0,2.98,231.78,3.43,'1111122,1111122,1111122' 
COMPS,ioos:station:USF.COMPS:BGC:1,2014-02-01T18:36:00Z,26.4040,-81.8810,10.0,2.89,228.31,3.23,'1111122,1111122,1111122' 
COMPS,ioos:station:USF.COMPS:BGC:1,2014-02-01T18:42:00Z,26.4040,-81.8810,10.0,3.04,236.26,4.21,'1111122,1111122,1111122' 
COMPS,ioos:station:USF.COMPS:BGC:1,2014-02-01T18:48:00Z,26.4040,-81.8810,10.0,3.6,241.39,4.6,'1111122,1111122,1111122' 
COMPS,ioos:station:USF.COMPS:BGC:1,2014-02-01T18:54:00Z,26.4040,-81.8810,10.0,3.77,242.72,4.41,'1111122,1111122,1111122' 
COMPS,ioos:station:USF.COMPS:BGC:1,2014-02-01T19:00:00Z,26.4040,-81.8810,10.0,4.03,245.89,4.7,'1111122,1111122,1111122' 
COMPS,ioos:station:USF.COMPS:BGC:1,2014-02-01T19:06:00Z,26.4040,-81.8810,10.0,4.27,241.97,4.8,'1111122,1111122,1111122' 
COMPS,ioos:station:USF.COMPS:BGC:1,2014-02-01T19:12:00Z,26.4040,-81.8810,10.0,4.39,241.68,5.39,'1111122,1111122,1111122' 
COMPS,ioos:station:USF.COMPS:BGC:1,2014-02-01T19:18:00Z,26.4040,-81.8810,10.0,4.18,242.42,5.39,'1111122,1111122,1111122' 
COMPS,ioos:station:USF.COMPS:BGC:1,2014-02-01T19:24:00Z,26.4040,-81.8810,10.0,4.09,247.66,4.9,'1111122,1111122,1111122' 
COMPS,ioos:station:USF.COMPS:BGC:1,2014-02-01T19:30:00Z,26.4040,-81.8810,10.0,4.18,248.73,4.7,'1111122,1111122,1111122' 